• In Hungary
  • List of Countries
  • For 7 days
  • Water Temperature
  • Satellite Maps
  • Weather Map
  • News
  • Weather Widgets
  • user-avatar
    Login

    Hourly Weather Listvyanka

    Today, 18 June, Monday

    Time Temperature Precipitation Wind Pressure Humidity
    00:00 +15°C° 0 mm 1 mps 751 mmHg 74%
    01:00 +15°C° 0 mm 1 mps 751 mmHg 76%
    02:00 +14°C° 0 mm 1 mps 751 mmHg 78%
    03:00 +14°C° 0 mm 1 mps 751 mmHg 80%
    04:00 +15°C° 0 mm 1 mps 751 mmHg 80%
    05:00 +16°C° 0 mm 1 mps 751 mmHg 79%
    06:00 +18°C° 0 mm 1 mps 751 mmHg 78%
    07:00 +20°C° 0 mm 1 mps 751 mmHg 72%
    08:00 +22°C° 0 mm 1 mps 751 mmHg 67%
    09:00 +24°C° 0 mm 1 mps 751 mmHg 61%
    10:00 +25°C° 0 mm 1 mps 751 mmHg 57%
    11:00 +26°C° 0 mm 1 mps 751 mmHg 53%
    12:00 +27°C° 0 mm 2 mps 751 mmHg 48%
    13:00 +27°C° 0 mm 1 mps 750 mmHg 49%
    14:00 +27°C° 0 mm 1 mps 750 mmHg 50%
    15:00 +27°C° 0 mm 1 mps 750 mmHg 51%
    16:00 +27°C° 0 mm 1 mps 750 mmHg 54%
    17:00 +27°C° 0 mm 1 mps 750 mmHg 58%
    18:00 +26°C° 0 mm 1 mps 750 mmHg 61%
    19:00 +24°C° 0 mm 1 mps 750 mmHg 65%
    20:00 +22°C° 0 mm 1 mps 750 mmHg 70%
    21:00 +21°C° 0 mm 1 mps 750 mmHg 74%
    22:00 +20°C° 0 mm 1 mps 750 mmHg 76%
    23:00 +19°C° 0 mm 1 mps 750 mmHg 78%

    Tomorrow, 19 June, Tuesday

    Time Temperature Precipitation Wind Pressure Humidity
    00:00 +18°C° 0 mm 1 mps 750 mmHg 79%
    01:00 +18°C° 0.1 mm 1 mps 750 mmHg 81%
    02:00 +16°C° 0.1 mm 1 mps 750 mmHg 82%
    03:00 +16°C° 0.1 mm 1 mps 750 mmHg 84%
    04:00 +18°C° 0 mm 1 mps 750 mmHg 83%
    05:00 +17°C° 0 mm 2 mps 750 mmHg 82%
    06:00 +18°C° 0 mm 2 mps 750 mmHg 82%
    07:00 +20°C° 0 mm 2 mps 750 mmHg 76%
    08:00 +23°C° 0 mm 2 mps 750 mmHg 70%
    09:00 +24°C° 0 mm 2 mps 750 mmHg 64%
    10:00 +25°C° 0 mm 3 mps 749 mmHg 62%
    11:00 +26°C° 0 mm 4 mps 749 mmHg 59%
    12:00 +27°C° 0 mm 4 mps 749 mmHg 57%
    13:00 +27°C° 0.1 mm 4 mps 749 mmHg 59%
    14:00 +26°C° 0.1 mm 5 mps 748 mmHg 61%
    15:00 +26°C° 0.1 mm 5 mps 748 mmHg 63%
    16:00 +26°C° 0.2 mm 5 mps 748 mmHg 66%
    17:00 +26°C° 0.2 mm 4 mps 747 mmHg 69%
    18:00 +25°C° 0.2 mm 4 mps 747 mmHg 73%
    19:00 +23°C° 0.2 mm 4 mps 747 mmHg 79%
    20:00 +21°C° 0.2 mm 3 mps 747 mmHg 85%
    21:00 +20°C° 0.2 mm 3 mps 747 mmHg 91%
    22:00 +19°C° 0 mm 3 mps 747 mmHg 92%
    23:00 +19°C° 0 mm 3 mps 747 mmHg 94%

    Day after tomorrow, 20 June, Wednesday

    Time Temperature Precipitation Wind Pressure Humidity
    00:00 +18°C° 0 mm 3 mps 746 mmHg 95%
    01:00 +18°C° 0 mm 3 mps 746 mmHg 95%
    02:00 +18°C° 0 mm 4 mps 746 mmHg 96%
    03:00 +18°C° 0 mm 4 mps 746 mmHg 96%
    04:00 +18°C° 0 mm 4 mps 746 mmHg 94%
    05:00 +18°C° 0 mm 4 mps 746 mmHg 92%
    06:00 +18°C° 0 mm 4 mps 746 mmHg 90%
    07:00 +19°C° 0 mm 5 mps 747 mmHg 83%
    08:00 +21°C° 0 mm 5 mps 747 mmHg 76%
    09:00 +22°C° 0 mm 5 mps 747 mmHg 69%
    10:00 +22°C° 0.1 mm 6 mps 747 mmHg 66%
    11:00 +23°C° 0.1 mm 6 mps 747 mmHg 62%
    12:00 +23°C° 0.1 mm 6 mps 747 mmHg 59%
    13:00 +24°C° 0 mm 6 mps 747 mmHg 57%
    14:00 +24°C° 0 mm 6 mps 747 mmHg 55%
    15:00 +24°C° 0 mm 6 mps 748 mmHg 53%
    16:00 +25°C° 0 mm 5 mps 748 mmHg 55%
    17:00 +25°C° 0 mm 4 mps 748 mmHg 58%
    18:00 +23°C° 0 mm 4 mps 748 mmHg 60%
    19:00 +21°C° 0 mm 3 mps 748 mmHg 65%
    20:00 +19°C° 0 mm 3 mps 748 mmHg 69%
    21:00 +18°C° 0 mm 2 mps 749 mmHg 74%
    22:00 +17°C° 0 mm 2 mps 749 mmHg 74%
    23:00 +16°C° 0 mm 2 mps 749 mmHg 75%

    21 June, Thursday

    Time Temperature Precipitation Wind Pressure Humidity
    00:00 +15°C° 0 mm 2 mps 749 mmHg 75%
    01:00 +15°C° 0 mm 2 mps 749 mmHg 75%
    02:00 +14°C° 0 mm 2 mps 749 mmHg 75%
    03:00 +14°C° 0 mm 2 mps 749 mmHg 75%
    04:00 +14°C° 0 mm 3 mps 749 mmHg 76%
    05:00 +14°C° 0 mm 3 mps 750 mmHg 77%
    06:00 +16°C° 0 mm 3 mps 750 mmHg 78%
    07:00 +18°C° 0 mm 3 mps 750 mmHg 73%
    08:00 +20°C° 0 mm 3 mps 750 mmHg 67%
    09:00 +21°C° 0 mm 4 mps 750 mmHg 61%
    10:00 +22°C° 0 mm 4 mps 750 mmHg 58%
    11:00 +23°C° 0 mm 4 mps 750 mmHg 55%
    12:00 +25°C° 0 mm 5 mps 750 mmHg 52%
    13:00 +26°C° 0 mm 4 mps 750 mmHg 52%
    14:00 +26°C° 0 mm 4 mps 749 mmHg 53%
    15:00 +26°C° 0 mm 4 mps 749 mmHg 53%
    16:00 +26°C° 0 mm 4 mps 749 mmHg 56%
    17:00 +26°C° 0 mm 3 mps 749 mmHg 59%
    18:00 +26°C° 0 mm 3 mps 749 mmHg 62%
    19:00 +24°C° 0 mm 3 mps 749 mmHg 68%
    20:00 +21°C° 0 mm 2 mps 749 mmHg 74%
    21:00 +19°C° 0 mm 2 mps 749 mmHg 80%
    22:00 +19°C° 0 mm 2 mps 750 mmHg 83%
    23:00 +18°C° 0 mm 2 mps 750 mmHg 86%

    22 June, Friday

    Time Temperature Precipitation Wind Pressure Humidity
    00:00 +17°C° 0 mm 2 mps 750 mmHg 88%
    01:00 +17°C° 0 mm 2 mps 750 mmHg 89%
    02:00 +16°C° 0 mm 2 mps 750 mmHg 90%
    03:00 +16°C° 0 mm 2 mps 750 mmHg 91%
    04:00 +17°C° 0 mm 2 mps 750 mmHg 89%
    05:00 +17°C° 0 mm 2 mps 750 mmHg 86%
    06:00 +18°C° 0 mm 2 mps 750 mmHg 84%
    07:00 +20°C° 0 mm 2 mps 750 mmHg 78%
    08:00 +22°C° 0 mm 3 mps 750 mmHg 72%
    09:00 +25°C° 0 mm 3 mps 749 mmHg 67%
    10:00 +26°C° 0 mm 4 mps 749 mmHg 63%
    11:00 +27°C° 0 mm 4 mps 749 mmHg 60%
    12:00 +27°C° 0 mm 5 mps 749 mmHg 57%
    13:00 +28°C° 0 mm 5 mps 749 mmHg 57%
    14:00 +28°C° 0 mm 5 mps 748 mmHg 56%
    15:00 +29°C° 0 mm 5 mps 748 mmHg 56%
    16:00 +28°C° 0 mm 4 mps 748 mmHg 60%
    17:00 +28°C° 0 mm 4 mps 747 mmHg 63%
    18:00 +28°C° 0 mm 4 mps 747 mmHg 66%
    19:00 +26°C° 0 mm 4 mps 747 mmHg 72%
    20:00 +24°C° 0 mm 3 mps 747 mmHg 78%
    21:00 +22°C° 0 mm 3 mps 747 mmHg 83%
    22:00 +21°C° 0 mm 3 mps 747 mmHg 85%
    23:00 +21°C° 0 mm 4 mps 747 mmHg 86%

    23 June, Saturday

    Time Temperature Precipitation Wind Pressure Humidity
    00:00 +20°C° 0 mm 4 mps 747 mmHg 87%
    01:00 +20°C° 0 mm 4 mps 747 mmHg 88%
    02:00 +20°C° 0 mm 4 mps 747 mmHg 88%
    03:00 +19°C° 0 mm 4 mps 746 mmHg 89%
    04:00 +20°C° 0 mm 4 mps 746 mmHg 86%
    05:00 +21°C° 0 mm 4 mps 746 mmHg 83%
    06:00 +21°C° 0 mm 5 mps 746 mmHg 81%
    07:00 +22°C° 0 mm 5 mps 746 mmHg 75%
    08:00 +25°C° 0 mm 5 mps 746 mmHg 70%
    09:00 +26°C° 0 mm 5 mps 745 mmHg 64%
    10:00 +27°C° 0 mm 5 mps 745 mmHg 61%
    11:00 +29°C° 0 mm 6 mps 745 mmHg 58%
    12:00 +30°C° 0 mm 6 mps 745 mmHg 55%
    13:00 +30°C° 0 mm 6 mps 744 mmHg 56%
    14:00 +30°C° 0 mm 7 mps 744 mmHg 56%
    15:00 +30°C° 0 mm 7 mps 744 mmHg 57%
    16:00 +29°C° 0.4 mm 6 mps 744 mmHg 63%
    17:00 +28°C° 0.4 mm 5 mps 744 mmHg 69%
    18:00 +27°C° 0.4 mm 4 mps 744 mmHg 76%
    19:00 +25°C° 0.2 mm 4 mps 744 mmHg 79%
    20:00 +24°C° 0.2 mm 3 mps 744 mmHg 82%
    21:00 +21°C° 0.2 mm 2 mps 744 mmHg 85%
    22:00 +21°C° 0.6 mm 2 mps 744 mmHg 87%
    23:00 +20°C° 0.6 mm 2 mps 744 mmHg 89%
    Show more